Home > Weather > Cochabamba > Past weeks

Flag for Bolivia Weather for the Past 2 Weeks in Cochabamba, Bolivia

Now
61 °F

Clear.


Feels Like: 61 °F
Forecast: 49 / 78 °F
Wind: No wind

Location: Cochabamba Airport

Current Time: May 6, 2016 at 9:24:15 AM

Latest Report: May 6, 2016 at 9:00 AM


Visibility: 4 mi

Pressure: 30.33 "Hg (22.35 "Hg at 2584m altitude)

Humidity: 48%

Dew Point: 41 °F

Location of CochabambaLocation

Historic Weather in Cochabamba — Graph

°F

Cochabamba Temperature Yesterday

Maximum temperature yesterday: 81 °F (at 1:00 PM)
Minimum temperature yesterday: 45 °F (at 7:00 AM)
Average temperature yesterday: 64 °F

High & Low Weather Summary for the Past Weeks

 TemperatureHumidityPressure
High88 °F (Apr 29, 4:00 PM)76% (Apr 23, 6:00 AM)30.39 "Hg (Apr 23, 6:00 AM)
Low43 °F (May 6, 7:00 AM)6% (Apr 25, 3:00 PM)30.01 "Hg (Apr 25, 4:00 PM)
Average65 °F36%30.21 "Hg
* Reported Apr 21 8:00 AM — May 6 8:00 AM, Cochabamba, Weather by CustomWeather, © 2016

Note: Actual official high and low records may vary slightly from our data, if they occured in-between our weather recording intervals... More about our weather records

Advertising

Cochabamba Weather History for the Previous 24 Hours

Scroll right to see more
 ConditionsComfort  
Time TempWeatherWind HumidityBarometerVisibility
8:00 AM
Fri, May 6
52 °FClear.No wind62%30.33 "Hg3 mi
7:00 AM43 °FClear.No wind76%30.30 "Hg3 mi
6:00 AM46 °FClear.No wind76%30.27 "HgN/A
5:00 AM48 °FClear.No wind71%30.27 "HgN/A
4:00 AM50 °FClear.No wind67%30.27 "HgN/A
3:00 AM50 °FClear.No wind71%30.27 "HgN/A
2:00 AM54 °FClear.No wind58%30.27 "HgN/A
1:00 AM57 °FPassing clouds.No wind51%30.27 "HgN/A
12:00 AM57 °FPassing clouds.3 mph55%30.27 "HgN/A
11:00 PM
Thu, May 5
61 °FPassing clouds.3 mph48%30.24 "HgN/A
10:00 PM63 °FClear.3 mph42%30.24 "HgN/A
9:00 PM64 °FClear.6 mph40%30.21 "HgN/A
8:00 PM66 °FClear.6 mph37%30.18 "HgN/A
7:00 PM68 °FPassing clouds.7 mph35%30.15 "HgN/A
6:00 PM72 °FPassing clouds.10 mph31%30.12 "HgN/A
5:00 PM77 °FPassing clouds.6 mph19%30.09 "HgN/A
4:00 PM79 °FScattered clouds.9 mph17%30.12 "HgN/A
3:00 PM81 °FPassing clouds.12 mph14%30.12 "HgN/A
2:00 PM81 °FPassing clouds.9 mph12%30.18 "HgN/A
1:00 PM81 °FPassing clouds.3 mph11%30.21 "HgN/A
12:00 PM77 °FPassing clouds.2 mph13%30.27 "HgN/A
11:00 AM73 °FPassing clouds.No wind19%30.30 "HgN/A
10:00 AM68 °FClear.No wind23%30.33 "Hg6 mi
9:00 AM63 °FClear.No wind30%30.33 "Hg6 mi
Weather by CustomWeather, © 2016

See weather overviewHow to use our weather pages